Regional Weather Roundup
Issued by NWS

Home | Current Version | Previous Version | Graphics & Text | Print | Product List | Glossary On
Versions: 1 2 3 4 5 6 7 8 9 10 11 12 13 14 15 16 17 18 19 20 21 22 23 24 25 26 27 28 29 30 31 32 33 34 35 36 37 38 39 40 41 42 43 44 45 46 47 48 49 50
000
ASUS43 KMPX 050610
RWRMN
WEATHER ROUNDUP FOR MINNESOTA
NATIONAL WEATHER SERVICE TWIN CITIES/CHANHASSEN MN
100 AM CDT SAT SEP 05 2015


NOTE: "FAIR" INDICATES FEW OR NO CLOUDS BELOW 12,000 FEET WITH NO
SIGNIFICANT WEATHER AND/OR OBSTRUCTIONS TO VISIBILITY. N/A MEANS
CURRENT SKY AND/OR WEATHER CONDITIONS ARE NOT AVAILABLE.

MNZ060>063-068>070-050700-
   Twin Cities Metro

CITY           SKY/WX    TMP DP  RH WIND       PRES   REMARKS
TWIN CITIES    MOCLDY    77  70  79 SE7       29.94S
6HR MIN TEMP:  76; 6HR MAX TEMP:  85;

ST PAUL        MOCLDY    76  72  87 SE7       29.94S
CRYSTAL        MOCLDY    78  68  71 SE5       29.92S
BLAINE         MOCLDY    79  72  78 SE6       29.94S
LAKEVILLE      MOCLDY    73  70  88 S7        29.95S
EDEN PRAIRIE   MOCLDY    77  68  73 SE7       29.92S
6HR MIN TEMP:  75; 6HR MAX TEMP:  85;

SOUTH ST PAUL  MOCLDY    77  71  81 CALM      29.94S
LAKE ELMO      MOCLDY    75  72  88 SE3       29.97S
$$
MNZ001>005-007-008-013>017-022>024-027-028-050700-
   Northwest Minnesota

CITY           SKY/WX    TMP DP  RH WIND       PRES   REMARKS
BEMIDJI        CLOUDY    70  68  94 SE8       29.91S
HALLOCK        FOG       64  63  94 N8        29.88R VSB 1/2
ROSEAU         MOCLDY    66  61  82 CALM      29.89S
WARROAD        CLOUDY    68  64  88 CALM      29.90S
THIEF RVR FALL MOCLDY    70  68  94 NE3       29.89R
CROOKSTON      CLEAR     70  68  94 NE6       29.87R
FOSSTON        PTCLDY    70  66  88 SE6       29.89R
DETROIT LAKES  MOCLDY    75  66  73 S9        29.89S
MOORHEAD       CLEAR     73  68  83 S5        29.85R
PARK RAPIDS    PTCLDY    73  71  93 SE8       29.91R
MAHNOMEN       CLOUDY    73  68  84 S5        29.87S
$$
MNZ006-009>011-018-025>026-050700-
   North Central Minnesota

CITY           SKY/WX    TMP DP  RH WIND       PRES   REMARKS
BAUDETTE       CLOUDY    71  69  93 CALM      29.90R
FLAG ISLAND    CLOUDY    70  66  88 W5        29.88R
INTL FALLS     LGT RAIN  67  66  97 VRB6      29.91F
6HR MIN TEMP:  67; 6HR MAX TEMP:  80; 6HR PCP:  0.23;

WASKISH        LGT RAIN  70  66  88 SE6       29.90S
BIG FORK       CLOUDY    66  64  94 E5        29.94F
LONGVILLE      CLOUDY    72  72 100 E5        29.94R
GRAND RAPIDS     N/A     66  64  94 E8        29.98S
CRANE LAKE     CLOUDY    64  64 100 SE5       29.97F
ORR            CLOUDY    64  63  94 CALM      29.95F
COOK           TSTM      64  64 100 E6        29.99F
WALKER         MOCLDY    70  69  96 E3        29.92S
$$
MNZ012-019>021-037-050700-
   Northeast Minnesota

CITY           SKY/WX    TMP DP  RH WIND       PRES   REMARKS
DULUTH         PTCLDY    66  62  87 SE9       29.99R
6HR MIN TEMP:  64; 6HR MAX TEMP:  71;

ELY            CLOUDY    68  61  77 W10G20    30.02R
HIBBING        LGT RAIN  66  64  93 N6        29.99F
EVELETH        TSTM      66  63  88 N7        30.03R
DULUTH HARBOR  MOCLDY    61  57  88 E3        29.99R
TWO HARBORS    PTCLDY    68  63  83 NE3       29.98R
SILVER BAY     PTCLDY    64  61  88 CALM      29.99S
GRAND MARAIS     N/A     66  59  78 NE3       30.01R
G MARAIS ARPRT MOCLDY    63  57  82 SE5       30.06R
$$
MNZ029>031-032-039>041-046>048-054>057-064-050700-
   West Central Minnesota

CITY           SKY/WX    TMP DP  RH WIND       PRES   REMARKS
FERGUS FALLS   PTCLDY    73  68  83 SE7       29.85R
WHEATON        PTCLDY    70  66  88 SE3       29.85S
MORRIS         MOCLDY    73  72  94 SE8       29.85S
ALEXANDRIA     HVY RAIN  72  69  90 SE9       29.91S FOG
ELBOW LAKE     FAIR      72  69  92 SE8       29.86S
WADENA         MOCLDY    72  70  94 SE6       29.90S
GLENWOOD       LGT RAIN  73  70  88 SE9       29.90S
APPLETON       MOCLDY    77  72  83 S8        29.85S
BENSON         CLOUDY    75  70  83 S9        29.86S
ORTONVILLE     MOCLDY    73  70  88 SE5       29.84S
MADISON        CLOUDY    73  72  94 SE7       29.85S
WILLMAR        CLOUDY    79  72  78 S12       29.90S
$$
MNZ033>034-036-042>043-049>051-058-059-050700-
   Central Minnesota

CITY           SKY/WX    TMP DP  RH WIND       PRES   REMARKS
ST CLOUD       MOCLDY    75  67  76 SE6       29.92R
6HR MIN TEMP:  73; 6HR MAX TEMP:  83; 6HR PCP: TRACE;

SAUK CENTRE    MOCLDY    71  68  90 SE6       29.91S
PAYNESVILLE    MOCLDY    74  68  82 E7        29.91S
AITKIN         CLOUDY    75  70  83 SE5       29.93R
PINE RIVER     CLOUDY    72  72 100 E3        29.96S
BRAINERD       MOCLDY    73  72  96 SE3       29.93R
STAPLES        PTCLDY    73  70  88 SE5       29.91S
LONG PRAIRIE   CLOUDY    70  66  88 SE7       29.92S
LITTLE FALLS   CLOUDY    73  68  83 E7        29.92S
LITCHFIELD     CLEAR     75  72  88 SE3       29.92S
BUFFALO        MOCLDY    75  65  72 E5        29.94R
MAPLE LAKE     MOCLDY    74  69  82 CALM      29.93S
$$
MNZ037-044-045-052-053-050700-
   East Central Minnesota

CITY           SKY/WX    TMP DP  RH WIND       PRES   REMARKS
PRINCETON      MOCLDY    75  70  83 CALM      29.94R
MORA           MOCLDY    73  70  88 E3        29.97R
CAMBRIDGE      MOCLDY    79  66  65 CALM      29.93R
RUSH CITY      PTCLDY    74  70  89 SE3       29.95S
MOOSE LAKE     MOCLDY    61  59  94 NE3       29.95S
HINCKLEY       FAIR      73  72  94 CALM      29.96R
CLOQUET        MOCLDY    63  59  88 CALM      29.98S
MCGREGOR       CLOUDY    68  66  94 E6        29.96R
$$
MNZ071>073-080-081-089-090-097-098-050700-
   Southwest Minnesota

CITY           SKY/WX    TMP DP  RH WIND       PRES   REMARKS
MONTEVIDEO     CLOUDY    75  72  88 S9        29.88S
GRANITE FALLS  CLOUDY    75  72  88 SE9       29.89S
CANBY          PTCLDY    75  69  80 SE6       29.86S
MARSHALL       CLOUDY    77  66  69 S13       29.89S
REDWOOD FALLS  CLOUDY    76  71  85 SE10      29.89S
OLIVIA         CLOUDY    73  68  83 S10       29.89S
PIPESTONE      PTCLDY    75  68  78 S10       29.90S
WINDOM         PTCLDY    75  70  83 SE8       29.93S
WORTHINGTON    MOCLDY    73  66  78 S13       29.92S
JACKSON        MOCLDY    77  72  83 S8        29.95S
TRACY          CLOUDY    77  71  83 S12       29.89F
SLAYTON        MOCLDY    73  71  91 CALM      29.92S
$$
MNZ065>067-074>077-082>085-091>093-050700-
   South Central Minnesota

CITY           SKY/WX    TMP DP  RH WIND       PRES   REMARKS
MANKATO        CLEAR     75  72  88 SE9       29.94S
NEW ULM        CLEAR     75  72  88 SE9       29.92S
ST JAMES       CLEAR     75  72  88 SE8       29.93S
FAIRMONT       CLEAR     75  66  73 SE10      29.93S
GLENCOE        MOCLDY    74  72  91 SE5       29.92S
FARIBAULT      MOCLDY    75  72  88 SE3       29.96S
OWATONNA       PTCLDY    75  72  88 SE7       29.97S
WASECA         PTCLDY    72  70  94 SE6       29.97S
ALBERT LEA     MOCLDY    75  72  88 SE5       29.97S
$$
MNZ078>079-086>088-094>096-050700-
   Southeast Minnesota

CITY           SKY/WX    TMP DP  RH WIND       PRES   REMARKS
ROCHESTER      CLOUDY    74  71  91 SE6       30.01S
6HR MIN TEMP:  73; 6HR MAX TEMP:  80; 6HR PCP:  0.03;

RED WING       LGT RAIN  77  72  83 SE7       29.96S
STANTON        CLOUDY    78  70  76 SE6       29.95S
DODGE CENTER   CLOUDY    73  72  94 CALM      30.00R
WINONA         RAIN      75  72  88 CALM      30.00R
AUSTIN         MOCLDY    75  72  88 SE3       29.98S
PRESTON        CLOUDY    74  69  83 S7        30.01S
$$
ABBREVIATIONS USED IN REMARKS
   TC - TEMPERATURES IN CELSIUS
  WCI - WIND CHILL INDEX
   HX - HEAT INDEX
  VSB - VISIBILITY
$$



USA.gov is the U.S. government's official web portal to all federal, state and local government web resources and services.